EST,Max TemperatureF,Mean TemperatureF,Min TemperatureF,Max Dew PointF,MeanDew PointF,Min DewpointF,Max Humidity, Mean Humidity, Min Humidity, Max Sea Level PressureIn, Mean Sea Level PressureIn, Min Sea Level PressureIn, Max VisibilityMiles, Mean VisibilityMiles, Min VisibilityMiles, Max Wind SpeedMPH, Mean Wind SpeedMPH, Max Gust SpeedMPH,PrecipitationIn, CloudCover, Events, WindDirDegrees
2012-12-1,36,32,28,31,25,16,89,74,58,30.55,30.50,30.44,10,9,5,9,2,10,T,8,,353
2012-12-2,50,43,35,45,38,32,100,86,71,30.44,30.25,30.08,10,3,0,10,2,15,0.13,7,Fog-Rain,193
2012-12-3,58,45,31,46,40,29,96,77,57,30.27,30.16,30.08,10,5,0,16,3,22,T,2,Fog-Rain,337
2012-12-4,57,44,30,51,44,28,93,85,77,30.26,30.16,29.92,9,6,2,12,2,16,0.00,5,,168
2012-12-5,57,45,33,50,35,17,96,69,41,30.25,30.03,29.88,10,8,0,22,9,31,0.02,6,Fog-Rain,296
2012-12-6,39,31,22,18,15,12,84,61,37,30.36,30.30,30.24,10,10,10,18,4,22,0.00,0,,358
2012-12-7,39,31,22,37,30,17,92,81,70,30.27,30.13,30.02,10,6,2,5,0,6,0.09,6,Rain,250
2012-12-8,48,44,39,45,40,37,93,88,83,30.00,29.93,29.86,10,4,1,7,1,10,0.19,8,Rain,217
2012-12-9,48,43,38,45,38,30,93,76,58,30.26,30.13,29.99,10,5,0,14,4,18,0.07,7,Fog-Rain,4
2012-12-10,55,48,40,52,43,37,96,90,83,30.04,29.70,29.53,10,4,2,21,1,28,0.09,8,Rain,357
2012-12-11,48,38,28,41,33,23,89,67,45,30.19,29.89,29.65,10,10,3,14,4,20,0.02,6,Rain,335
2012-12-12,40,33,25,28,24,22,85,70,54,30.44,30.35,30.20,10,10,9,6,1,12,0.00,0,,284
2012-12-13,44,33,22,27,22,18,92,66,40,30.48,30.40,30.30,10,8,6,7,0,8,0.00,0,,290
2012-12-14,50,36,21,25,22,18,88,60,32,30.28,30.20,30.11,10,10,7,12,3,16,0.00,0,,192
2012-12-15,45,33,21,30,24,17,88,69,49,30.32,30.26,30.22,10,9,5,5,0,6,0.00,0,,-1
2012-12-16,39,36,32,34,30,24,85,77,69,30.22,30.08,29.95,10,10,8,12,4,17,T,8,Rain,67
2012-12-17,41,39,37,38,36,34,92,84,76,29.94,29.85,29.66,10,5,2,12,3,16,0.60,8,Rain,359
2012-12-18,48,44,40,44,40,33,93,79,65,29.64,29.52,29.44,10,7,1,14,3,18,0.51,8,Rain,321
2012-12-19,49,39,29,30,25,22,78,58,38,30.12,29.82,29.57,10,10,10,20,9,28,0.00,2,,317
2012-12-20,42,32,22,37,28,19,88,69,49,30.21,30.06,29.82,10,10,9,15,3,23,0.05,3,Rain,107
2012-12-21,57,48,38,54,38,26,93,76,59,29.75,29.25,29.02,10,8,1,29,13,44,1.19,8,Rain,179
2012-12-22,38,36,34,30,20,15,76,58,40,29.78,29.52,29.26,10,10,10,31,15,44,0.00,7,,269
2012-12-23,42,34,25,22,20,19,75,59,43,29.92,29.86,29.78,10,10,10,17,8,25,0.00,3,,238
2012-12-24,39,30,20,28,21,17,85,65,44,30.09,30.01,29.93,10,8,2,10,1,13,0.01,2,Snow,235
2012-12-25,36,30,23,29,27,19,92,78,64,30.27,30.04,29.93,10,7,2,12,4,13,0.03,7,Snow,350
2012-12-26,36,28,20,30,22,16,88,76,63,30.32,29.99,29.62,10,5,0,18,6,26,0.37,6,Fog-Rain-Snow,8
2012-12-27,36,33,30,31,28,19,89,74,59,29.81,29.52,29.38,10,5,1,18,10,24,0.65,8,Rain-Snow,340
2012-12-28,38,29,20,22,20,16,88,70,52,30.07,30.00,29.82,10,10,10,14,3,17,0.00,2,,331
2012-12-29,30,25,19,27,24,15,92,85,78,30.04,29.69,29.54,10,4,0,10,4,16,0.20,7,Fog-Snow,350
2012-12-30,33,25,16,25,15,9,92,66,39,30.14,29.79,29.58,10,7,0,24,9,31,T,3,Fog,290
2012-12-31,37,24,11,21,17,7,84,66,48,30.14,30.02,29.84,10,10,10,20,7,26,0.00,2,,231